Location: Kawakawa
(35.3830°S, 174.0670°E)
Time: 22:07:42
(UTC+13:00)

Altair - All Passes

Search period start: 06 December 2019 00:00
Search period end: 16 December 2019 00:00
Orbit: 1502 x 1682 km, 47.2° (Epoch: 05 December)

Date Brightness Start Highest point End Pass type
(mag) Time Alt. Az. Time Alt. Az. Time Alt. Az.
06 Dec - 08:51:28 10° NNE 08:57:52 20° ENE 09:04:25 10° E daylight
06 Dec - 10:51:42 10° NW 11:01:24 74° NE 11:11:30 10° ESE daylight
06 Dec - 12:57:09 10° W 13:06:50 52° SSW 13:16:46 10° ESE daylight
06 Dec - 15:04:08 10° WSW 15:13:41 43° S 15:23:17 10° ESE daylight
06 Dec - 17:09:48 10° SW 17:20:03 71° SSE 17:30:08 10° ENE daylight
06 Dec - 19:15:13 10° WSW 19:24:37 44° NW 19:33:47 10° NNE daylight
07 Dec - 08:27:05 10° NNE 08:32:49 18° ENE 08:38:40 10° E daylight
07 Dec - 10:26:37 10° NW 10:36:14 69° NE 10:46:16 10° ESE daylight
07 Dec - 12:31:50 10° W 12:41:31 54° SSW 12:51:29 10° SE daylight
07 Dec - 14:38:48 10° WSW 14:48:19 43° S 14:57:54 10° ESE daylight
07 Dec - 16:44:34 10° SW 16:54:47 68° SSE 17:04:52 10° ENE daylight
07 Dec - 18:49:54 10° WSW 18:59:29 48° NW 19:08:52 10° NNE daylight
08 Dec - 08:02:52 10° NNE 08:07:47 15° ENE 08:12:47 10° E daylight
08 Dec - 10:01:35 10° NW 10:11:05 64° NE 10:20:59 10° ESE daylight
08 Dec - 12:06:32 10° W 12:16:13 56° SSW 12:26:14 10° SE daylight
08 Dec - 14:13:28 10° WSW 14:22:57 42° S 14:32:31 10° ESE daylight
08 Dec - 16:19:20 10° SW 16:29:31 64° SSE 16:39:34 10° ENE daylight
08 Dec - 18:24:35 10° WSW 18:34:20 52° NW 18:43:54 10° NNE daylight
08 Dec - 20:35:41 10° WNW 20:37:30 11° WNW 20:39:18 10° NW daylight
09 Dec - 07:38:56 10° NE 07:42:46 13° ENE 07:46:38 10° E daylight
09 Dec - 09:36:34 10° NNW 09:45:56 59° NE 09:55:43 10° ESE daylight
09 Dec - 11:41:14 10° WNW 11:50:55 59° SSW 12:00:58 10° SE daylight
09 Dec - 13:48:09 10° WSW 13:57:35 42° S 14:07:09 10° ESE daylight
09 Dec - 15:54:06 10° SW 16:04:13 61° SSE 16:14:15 10° ENE daylight
09 Dec - 17:59:18 10° WSW 18:09:12 57° NW 18:18:54 10° NNE daylight
09 Dec - 20:08:40 10° W 20:12:27 13° WNW 20:16:13 10° NW daylight
10 Dec - 07:15:39 10° NE 07:17:44 11° ENE 07:19:50 10° ENE daylight
10 Dec - 09:11:35 10° NNW 09:20:49 54° NE 09:30:25 10° ESE daylight
10 Dec - 11:15:57 10° WNW 11:25:38 62° SSW 11:35:43 10° SE daylight
10 Dec - 13:22:48 10° WSW 13:32:13 42° S 13:41:47 10° ESE daylight
10 Dec - 15:28:52 10° SW 15:38:55 58° SSE 15:48:55 10° ENE daylight
10 Dec - 17:34:02 10° WSW 17:44:02 62° NW 17:53:52 10° NE daylight
10 Dec - 19:42:26 10° W 19:47:24 15° WNW 19:52:20 10° NNW daylight
11 Dec - 08:46:39 10° NNW 08:55:41 49° NE 09:05:07 10° ESE daylight
11 Dec - 10:50:40 10° WNW 11:00:22 65° SSW 11:10:28 10° SE daylight
11 Dec - 12:57:28 10° WSW 13:06:50 42° S 13:16:25 10° ESE daylight
11 Dec - 15:03:38 10° SW 15:13:36 56° SSE 15:23:35 10° E daylight
11 Dec - 17:08:46 10° WSW 17:18:52 66° NW 17:28:49 10° NE daylight
11 Dec - 19:16:30 10° W 19:22:21 17° WNW 19:28:09 10° NNW daylight
12 Dec - 08:21:44 10° NNW 08:30:35 45° NE 08:39:48 10° ESE daylight
12 Dec - 10:25:25 10° WNW 10:35:07 69° SSW 10:45:13 10° SE daylight
12 Dec - 12:32:08 10° WSW 12:41:29 43° S 12:51:04 10° ESE daylight
12 Dec - 14:38:24 10° SW 14:48:17 53° SSE 14:58:13 10° E daylight
12 Dec - 16:43:32 10° WSW 16:53:41 72° NW 17:03:43 10° NE daylight
12 Dec - 18:50:44 10° W 18:57:17 19° WNW 19:03:47 10° NNW daylight
13 Dec - 07:56:51 10° NNW 08:05:29 41° NE 08:14:28 10° ESE daylight
13 Dec - 10:00:11 10° WNW 10:09:52 73° SSW 10:19:58 10° SE daylight
13 Dec - 12:06:48 10° WSW 12:16:07 43° S 12:25:42 10° ESE daylight
13 Dec - 14:13:09 10° WSW 14:22:58 51° SSE 14:32:51 10° E daylight
13 Dec - 16:18:18 10° WSW 16:28:30 77° NW 16:38:36 10° NE daylight
13 Dec - 18:25:05 10° W 18:32:13 22° NW 18:39:18 10° N daylight
14 Dec - 07:32:00 10° NNW 07:40:24 37° NE 07:49:06 10° ESE daylight
14 Dec - 09:34:58 10° WNW 09:44:37 77° SSW 09:54:44 10° SE daylight
14 Dec - 11:41:27 10° WSW 11:50:46 44° S 12:00:22 10° ESE daylight
14 Dec - 13:47:54 10° WSW 13:57:38 49° SSE 14:07:28 10° E daylight
14 Dec - 15:53:04 10° WSW 16:03:18 82° NW 16:13:27 10° NE daylight
14 Dec - 17:59:31 10° WSW 18:07:09 25° NW 18:14:43 10° N daylight
15 Dec - 07:07:13 10° N 07:15:20 33° NE 07:23:43 10° ESE daylight
15 Dec - 09:09:47 10° WNW 09:19:25 81° SSW 09:29:30 10° SE daylight
15 Dec - 11:16:07 10° W 11:25:25 45° S 11:35:02 10° ESE daylight
15 Dec - 13:22:39 10° WSW 13:32:18 48° SSE 13:42:05 10° E daylight
15 Dec - 15:27:51 10° SW 15:38:06 87° NW 15:48:17 10° NE daylight
15 Dec - 17:34:00 10° WSW 17:42:04 28° NW 17:50:03 10° N daylight
